contact:dominique.lefevre@mio.osupytheas.fr, maurice.libes@osupytheas.fr, didier.mallarino@osupytheas.fr
Project:EMSO http://www.emso-fr.org/EMSO-France
Depth: 2436.0 m
Title:EMSO Ligure Ouest : Data MII capteur AQUADOPP
Date,Latitude,Longitude,X_East,Y_North,Z_Up,Amplitude_X,Amplitude_Y,Amplitude_Z,Batterie,SoundSpeed,Heading,Pitch,Roll,Pressure,TIS,Speed,Direction
, degrees North, degrees East, m.s-1, m.s-1,m.s-1, 1, 1, 1, Volt, m.s-1, degree, degree, degree, dbar, degree_C, m.s-1, degree
2022-07-09T00:04:03,42.805,6.029,-0.043,0.047,-0.008,103.0,103.0,103.0,13.3,1505.2,329.3,-0.8,1.8,2470.943,13.28,0.063,317.5
2022-07-09T00:07:03,42.805,6.029,-0.046,0.034,-0.011,103.0,105.0,100.0,13.3,1505.2,324.7,-0.8,1.8,2470.93,13.28,0.057,306.5
2022-07-09T00:10:03,42.805,6.029,-0.04,0.009,0.001,104.0,104.0,100.0,13.4,1505.2,328.0,-0.8,1.8,2470.924,13.28,0.041,282.7
2022-07-09T00:13:03,42.805,6.029,-0.037,0.006,-0.002,103.0,102.0,100.0,13.4,1505.2,322.6,-0.7,1.8,2470.909,13.28,0.037,279.2
2022-07-09T00:16:03,42.805,6.029,-0.02,0.023,-0.011,103.0,102.0,101.0,13.4,1505.2,329.3,-0.7,1.9,2470.908,13.28,0.03,319.0
2022-07-09T00:19:03,42.805,6.029,-0.036,0.031,-0.009,103.0,104.0,101.0,13.3,1505.2,330.3,-0.8,1.8,2470.904,13.28,0.047,310.7
2022-07-09T00:22:03,42.805,6.029,-0.058,0.025,0.0,103.0,103.0,100.0,13.4,1505.2,319.6,-0.8,1.8,2470.89,13.29,0.063,293.3
2022-07-09T00:25:03,42.805,6.029,-0.043,0.025,-0.049,104.0,104.0,101.0,13.4,1505.2,328.8,-0.8,1.8,2470.861,13.29,0.049,300.2
2022-07-09T00:28:03,42.805,6.029,-0.044,0.023,0.02,105.0,102.0,99.0,13.4,1505.2,324.7,-0.7,1.8,2470.891,13.29,0.049,297.6
2022-07-09T00:31:03,42.805,6.029,-0.044,0.03,0.022,104.0,104.0,100.0,13.4,1505.2,327.0,-0.8,1.8,2470.886,13.29,0.053,304.3
2022-07-09T00:34:03,42.805,6.029,-0.025,0.045,0.025,103.0,103.0,101.0,13.3,1505.2,323.5,-0.8,1.8,2470.938,13.29,0.051,330.9
2022-07-09T00:37:03,42.805,6.029,-0.036,0.034,0.008,102.0,105.0,101.0,13.4,1505.2,323.4,-0.8,1.8,2470.917,13.29,0.049,313.4
2022-07-09T00:40:03,42.805,6.029,-0.065,0.04,0.005,103.0,104.0,100.0,13.4,1505.2,323.1,-0.7,1.8,2470.889,13.29,0.076,301.6
2022-07-09T00:43:03,42.805,6.029,-0.048,0.035,-0.023,103.0,105.0,100.0,13.3,1505.2,321.9,-0.8,1.8,2470.892,13.28,0.059,306.1
2022-07-09T00:46:03,42.805,6.029,-0.033,0.007,-0.027,102.0,103.0,100.0,13.4,1505.2,323.2,-0.8,1.8,2470.891,13.29,0.033,282.0
2022-07-09T00:49:03,42.805,6.029,-0.051,0.016,-0.002,103.0,104.0,101.0,13.3,1505.2,324.9,-0.8,1.8,2470.913,13.29,0.053,287.4
2022-07-09T00:52:03,42.805,6.029,-0.039,0.027,0.002,103.0,103.0,101.0,13.3,1505.2,331.2,-0.8,1.8,2470.888,13.29,0.047,304.7
2022-07-09T00:55:03,42.805,6.029,-0.02,0.021,0.014,103.0,104.0,101.0,13.4,1505.2,330.8,-0.8,1.8,2470.88,13.29,0.028,316.4
2022-07-09T00:58:03,42.805,6.029,-0.048,0.037,-0.002,102.0,105.0,100.0,13.4,1505.2,325.1,-0.7,1.8,2470.892,13.29,0.06,307.6
2022-07-09T01:04:03,42.805,6.029,-0.049,0.048,0.002,103.0,107.0,103.0,13.4,1505.2,321.3,-0.8,1.8,2470.9,13.28,0.068,314.4
2022-07-09T01:07:03,42.805,6.029,-0.042,0.064,-0.013,104.0,105.0,102.0,13.4,1505.2,324.5,-0.7,1.8,2470.934,13.28,0.076,326.7
2022-07-09T01:10:03,42.805,6.029,-0.028,0.024,0.017,103.0,104.0,100.0,13.4,1505.2,328.1,-0.8,1.8,2470.924,13.28,0.036,310.6
2022-07-09T01:13:03,42.805,6.029,-0.023,0.04,0.024,103.0,103.0,100.0,13.4,1505.2,325.8,-0.8,1.8,2470.937,13.28,0.046,330.1
2022-07-09T01:16:03,42.805,6.029,-0.034,0.041,0.005,102.0,105.0,102.0,13.3,1505.2,323.7,-0.8,1.8,2470.93,13.28,0.053,320.3
2022-07-09T01:19:03,42.805,6.029,-0.048,0.039,-0.01,101.0,103.0,101.0,13.4,1505.2,325.5,-0.8,1.8,2470.936,13.29,0.061,309.1
2022-07-09T01:22:03,42.805,6.029,-0.051,0.042,0.022,106.0,104.0,100.0,13.4,1505.2,328.5,-0.7,1.8,2470.902,13.29,0.066,309.5
2022-07-09T01:25:03,42.805,6.029,-0.067,0.03,-0.003,102.0,105.0,100.0,13.3,1505.2,329.7,-0.7,1.8,2470.92,13.29,0.073,294.1
2022-07-09T01:28:03,42.805,6.029,-0.064,0.065,-0.004,102.0,104.0,101.0,13.4,1505.2,329.5,-0.7,1.8,2470.927,13.29,0.091,315.4
2022-07-09T01:31:03,42.805,6.029,-0.041,0.013,-0.012,103.0,104.0,102.0,13.4,1505.2,324.4,-0.8,1.8,2470.959,13.29,0.043,287.6
2022-07-09T01:34:03,42.805,6.029,-0.037,0.039,0.003,103.0,102.0,101.0,13.4,1505.2,320.9,-0.8,1.8,2470.896,13.29,0.053,316.5
2022-07-09T01:37:03,42.805,6.029,-0.056,0.046,0.014,104.0,103.0,101.0,13.4,1505.2,322.1,-0.7,1.8,2470.915,13.29,0.072,309.4
2022-07-09T01:40:03,42.805,6.029,-0.051,0.029,-0.01,104.0,105.0,101.0,13.4,1505.2,329.7,-0.7,1.8,2470.951,13.29,0.058,299.6
2022-07-09T01:43:03,42.805,6.029,-0.024,0.025,-0.012,104.0,104.0,100.0,13.4,1505.2,327.8,-0.7,1.8,2470.898,13.29,0.034,316.2
2022-07-09T01:46:03,42.805,6.029,-0.033,0.036,0.001,104.0,103.0,100.0,13.4,1505.2,322.2,-0.7,1.8,2470.926,13.29,0.048,317.5
2022-07-09T01:49:03,42.805,6.029,-0.053,0.043,-0.014,103.0,105.0,101.0,13.4,1505.2,333.9,-0.7,1.8,2470.93,13.29,0.068,309.1
2022-07-09T01:52:03,42.805,6.029,-0.052,0.032,-0.011,104.0,104.0,101.0,13.4,1505.2,328.4,-0.8,1.8,2470.915,13.29,0.061,301.6
2022-07-09T01:55:03,42.805,6.029,-0.034,0.032,-0.011,104.0,103.0,101.0,13.4,1505.2,327.1,-0.8,1.9,2470.89,13.29,0.046,313.3
2022-07-09T01:58:03,42.805,6.029,-0.054,0.039,0.028,103.0,105.0,100.0,13.4,1505.2,332.2,-0.8,1.8,2470.904,13.29,0.066,305.8
2022-07-09T02:04:03,42.805,6.029,-0.044,0.033,0.013,102.0,105.0,100.0,13.3,1505.2,324.0,-0.8,1.8,2470.95,13.28,0.055,306.9
2022-07-09T02:07:03,42.805,6.029,-0.044,0.033,0.024,102.0,104.0,101.0,13.4,1505.2,321.0,-0.7,1.8,2470.969,13.28,0.055,306.9
2022-07-09T02:10:03,42.805,6.029,-0.039,0.033,-0.01,103.0,101.0,102.0,13.4,1505.2,331.8,-0.8,1.8,2470.913,13.28,0.051,310.2
2022-07-09T02:13:03,42.805,6.029,-0.013,0.01,-0.006,104.0,104.0,99.0,13.3,1505.2,329.5,-0.7,1.9,2470.966,13.28,0.016,307.6
2022-07-09T02:16:03,42.805,6.029,-0.036,0.026,0.003,103.0,102.0,100.0,13.4,1505.2,321.3,-0.8,1.8,2470.909,13.29,0.044,305.8
2022-07-09T02:19:03,42.805,6.029,-0.031,0.041,0.033,102.0,104.0,100.0,13.4,1505.2,330.0,-0.8,1.8,2470.954,13.29,0.051,322.9
2022-07-09T02:22:03,42.805,6.029,-0.04,0.035,0.004,103.0,102.0,100.0,13.3,1505.2,326.7,-0.8,1.8,2470.925,13.29,0.053,311.2
2022-07-09T02:25:03,42.805,6.029,-0.008,0.034,0.03,103.0,103.0,99.0,13.4,1505.2,328.8,-0.7,1.8,2470.955,13.29,0.034,346.8
2022-07-09T02:28:03,42.805,6.029,-0.062,0.033,0.006,103.0,103.0,102.0,13.4,1505.2,319.3,-0.8,1.8,2470.914,13.29,0.07,298.0
2022-07-09T02:31:03,42.805,6.029,-0.028,0.026,0.032,102.0,104.0,102.0,13.4,1505.2,331.9,-0.7,1.8,2470.941,13.29,0.038,312.9
2022-07-09T02:34:03,42.805,6.029,-0.041,0.025,0.004,103.0,103.0,100.0,13.4,1505.2,323.5,-0.8,1.8,2470.891,13.29,0.048,301.4
2022-07-09T02:37:03,42.805,6.029,-0.053,0.024,-0.017,102.0,104.0,101.0,13.4,1505.2,324.9,-0.8,1.8,2470.875,13.29,0.058,294.4
2022-07-09T02:40:03,42.805,6.029,-0.031,0.061,0.005,102.0,105.0,100.0,13.3,1505.2,329.8,-0.8,1.8,2470.925,13.29,0.068,333.1
2022-07-09T02:43:03,42.805,6.029,-0.023,0.047,-0.016,102.0,104.0,100.0,13.4,1505.2,327.0,-0.8,1.8,2470.893,13.29,0.052,333.9
2022-07-09T02:46:03,42.805,6.029,-0.043,0.032,-0.008,102.0,106.0,101.0,13.4,1505.2,319.5,-0.7,1.8,2470.898,13.29,0.053,306.7
2022-07-09T02:49:03,42.805,6.029,-0.05,0.032,-0.005,103.0,105.0,100.0,13.4,1505.2,323.6,-0.7,1.8,2470.933,13.29,0.059,302.6
2022-07-09T02:52:03,42.805,6.029,-0.055,0.024,-0.025,103.0,105.0,100.0,13.4,1505.2,323.4,-0.8,1.8,2470.916,13.29,0.06,293.6
2022-07-09T02:55:03,42.805,6.029,-0.035,0.016,-0.007,103.0,104.0,101.0,13.4,1505.2,330.6,-0.7,1.8,2470.914,13.29,0.038,294.6
2022-07-09T02:58:03,42.805,6.029,-0.045,0.013,-0.023,102.0,103.0,101.0,13.3,1505.2,319.1,-0.8,1.8,2470.919,13.29,0.046,286.1
2022-07-09T03:04:03,42.805,6.029,-0.028,0.047,0.048,102.0,105.0,100.0,13.4,1505.2,326.1,-0.7,1.8,2470.959,13.28,0.054,329.2
2022-07-09T03:07:03,42.805,6.029,-0.035,0.049,0.018,103.0,104.0,101.0,13.3,1505.2,330.9,-0.8,1.8,2470.972,13.28,0.06,324.5
2022-07-09T03:10:03,42.805,6.029,-0.035,0.023,0.0,101.0,104.0,101.0,13.4,1505.2,326.0,-0.7,1.9,2470.962,13.28,0.041,303.3
2022-07-09T03:13:03,42.805,6.029,-0.037,0.036,0.017,102.0,106.0,99.0,13.4,1505.2,323.5,-0.7,1.8,2470.945,13.28,0.051,314.2
2022-07-09T03:16:03,42.805,6.029,-0.024,0.043,0.003,103.0,102.0,101.0,13.3,1505.2,327.9,-0.8,1.8,2470.908,13.29,0.049,330.8
2022-07-09T03:19:03,42.805,6.029,-0.016,0.049,0.012,103.0,105.0,100.0,13.4,1505.2,327.5,-0.8,1.8,2470.948,13.29,0.051,341.9
2022-07-09T03:22:03,42.805,6.029,-0.027,0.035,0.02,102.0,103.0,100.0,13.3,1505.2,329.7,-0.7,1.8,2470.913,13.29,0.044,322.3
2022-07-09T03:25:03,42.805,6.029,-0.015,0.032,0.029,103.0,103.0,101.0,13.4,1505.2,325.8,-0.7,1.8,2470.93,13.29,0.035,334.9
2022-07-09T03:28:03,42.805,6.029,-0.027,0.039,-0.009,103.0,103.0,100.0,13.4,1505.2,332.4,-0.8,1.8,2470.901,13.29,0.047,325.3
2022-07-09T03:31:03,42.805,6.029,-0.041,0.044,-0.026,103.0,103.0,100.0,13.4,1505.2,323.4,-0.8,1.8,2470.92,13.29,0.06,317.0
2022-07-09T03:34:03,42.805,6.029,-0.051,0.057,0.029,105.0,102.0,100.0,13.3,1505.2,333.1,-0.8,1.8,2470.872,13.29,0.076,318.2
2022-07-09T03:37:03,42.805,6.029,-0.039,0.049,0.004,104.0,102.0,100.0,13.3,1505.2,326.1,-0.8,1.8,2470.902,13.29,0.062,321.5
2022-07-09T03:40:03,42.805,6.029,-0.025,0.037,-0.01,102.0,103.0,101.0,13.3,1505.2,325.0,-0.8,1.8,2470.935,13.29,0.044,326.0
2022-07-09T03:43:03,42.805,6.029,-0.022,0.046,0.024,104.0,103.0,101.0,13.4,1505.2,327.7,-0.8,1.8,2470.912,13.29,0.05,334.4
2022-07-09T03:46:03,42.805,6.029,-0.028,0.047,0.011,101.0,104.0,101.0,13.3,1505.2,326.9,-0.7,1.8,2470.903,13.29,0.054,329.2
2022-07-09T03:49:03,42.805,6.029,-0.03,0.024,-0.01,103.0,102.0,100.0,13.4,1505.2,325.7,-0.7,1.8,2470.876,13.29,0.038,308.7
2022-07-09T03:52:03,42.805,6.029,-0.024,0.048,0.013,102.0,105.0,100.0,13.4,1505.2,332.9,-0.8,1.8,2470.923,13.29,0.053,333.4
2022-07-09T03:55:03,42.805,6.029,-0.019,0.019,-0.002,103.0,104.0,100.0,13.4,1505.2,332.9,-0.7,1.8,2470.916,13.29,0.026,315.0
2022-07-09T03:58:03,42.805,6.029,-0.035,0.02,0.002,103.0,104.0,100.0,13.4,1505.2,326.0,-0.8,1.8,2470.905,13.29,0.04,299.7
2022-07-09T04:04:03,42.805,6.029,-0.042,0.052,0.018,102.0,103.0,101.0,13.4,1505.2,324.6,-0.8,1.8,2470.967,13.28,0.066,321.1
2022-07-09T04:07:03,42.805,6.029,-0.023,0.02,0.019,102.0,104.0,100.0,13.4,1505.2,323.9,-0.8,1.8,2470.946,13.28,0.03,311.0
2022-07-09T04:10:03,42.805,6.029,-0.062,0.045,0.007,102.0,102.0,100.0,13.4,1505.2,326.6,-0.8,1.8,2470.939,13.28,0.076,306.0
2022-07-09T04:13:04,42.805,6.029,-0.034,0.031,0.0,103.0,102.0,101.0,13.4,1505.2,327.2,-0.8,1.8,2470.942,13.29,0.046,312.4
2022-07-09T04:16:03,42.805,6.029,-0.044,0.025,-0.017,104.0,103.0,100.0,13.4,1505.2,319.3,-0.8,1.8,2470.951,13.29,0.05,299.6
2022-07-09T04:19:03,42.805,6.029,-0.031,0.035,-0.014,105.0,103.0,99.0,13.4,1505.2,329.9,-0.8,1.9,2470.935,13.29,0.046,318.5
2022-07-09T04:22:03,42.805,6.029,-0.058,0.035,-0.005,103.0,102.0,103.0,13.4,1505.2,326.4,-0.7,1.8,2470.909,13.29,0.067,301.1
2022-07-09T04:25:03,42.805,6.029,-0.021,0.031,-0.006,103.0,103.0,101.0,13.4,1505.2,332.2,-0.7,1.8,2470.92,13.29,0.037,325.9
2022-07-09T04:28:03,42.805,6.029,-0.046,0.025,0.023,105.0,102.0,101.0,13.3,1505.2,328.8,-0.7,1.8,2470.905,13.29,0.052,298.5
2022-07-09T04:31:03,42.805,6.029,-0.037,0.03,-0.018,103.0,102.0,102.0,13.3,1505.2,322.8,-0.8,1.8,2470.885,13.29,0.047,309.0
2022-07-09T04:34:03,42.805,6.029,-0.049,0.011,-0.038,103.0,102.0,100.0,13.4,1505.2,333.1,-0.8,1.8,2470.871,13.29,0.05,282.7
2022-07-09T04:37:03,42.805,6.029,-0.023,0.053,0.001,102.0,102.0,101.0,13.4,1505.2,334.1,-0.7,1.8,2470.874,13.29,0.057,336.5
2022-07-09T04:40:03,42.805,6.029,-0.029,0.013,-0.012,103.0,101.0,102.0,13.4,1505.2,329.2,-0.8,1.8,2470.897,13.29,0.031,294.1
2022-07-09T04:43:03,42.805,6.029,-0.026,0.033,0.004,102.0,103.0,101.0,13.4,1505.2,323.4,-0.7,1.8,2470.908,13.29,0.042,321.8
2022-07-09T04:46:03,42.805,6.029,-0.028,0.036,-0.017,104.0,104.0,100.0,13.4,1505.2,326.1,-0.8,1.8,2470.908,13.29,0.045,322.1
2022-07-09T04:49:03,42.805,6.029,-0.038,0.03,-0.002,103.0,103.0,99.0,13.3,1505.2,324.2,-0.8,1.8,2470.915,13.29,0.048,308.3
2022-07-09T04:52:03,42.805,6.029,-0.045,0.03,-0.033,102.0,104.0,101.0,13.4,1505.2,319.7,-0.8,1.8,2470.889,13.29,0.054,303.7
2022-07-09T04:55:03,42.805,6.029,-0.029,0.052,0.031,102.0,103.0,100.0,13.3,1505.2,325.7,-0.8,1.8,2470.918,13.29,0.059,330.9
2022-07-09T04:58:03,42.805,6.029,-0.043,0.038,0.025,102.0,104.0,100.0,13.3,1505.2,332.6,-0.8,1.8,2470.88,13.29,0.057,311.5
2022-07-09T05:04:03,42.805,6.029,-0.033,0.011,-0.003,103.0,102.0,102.0,13.3,1505.2,322.0,-0.8,1.8,2470.889,13.28,0.034,288.4
2022-07-09T05:07:03,42.805,6.029,-0.044,0.023,0.006,103.0,104.0,100.0,13.4,1505.2,325.6,-0.7,1.8,2470.877,13.28,0.049,297.6
2022-07-09T05:10:03,42.805,6.029,-0.069,0.014,0.013,103.0,102.0,100.0,13.3,1505.2,319.5,-0.7,1.8,2470.919,13.29,0.07,281.5
2022-07-09T05:13:03,42.805,6.029,-0.034,0.048,-0.014,104.0,103.0,99.0,13.4,1505.2,333.4,-0.8,1.8,2470.859,13.29,0.058,324.7
2022-07-09T05:16:03,42.805,6.029,-0.05,0.03,0.004,103.0,103.0,100.0,13.3,1505.2,324.0,-0.7,1.8,2470.866,13.29,0.058,301.0
2022-07-09T05:19:03,42.805,6.029,-0.028,0.006,-0.005,102.0,102.0,101.0,13.4,1505.2,323.1,-0.8,1.8,2470.886,13.29,0.028,282.1
2022-07-09T05:22:03,42.805,6.029,-0.032,0.028,-0.018,104.0,103.0,99.0,13.4,1505.2,325.4,-0.8,1.8,2470.85,13.29,0.042,311.2
2022-07-09T05:25:03,42.805,6.029,-0.056,0.031,-0.007,102.0,103.0,101.0,13.4,1505.2,323.6,-0.8,1.8,2470.879,13.29,0.064,299.0
2022-07-09T05:28:03,42.805,6.029,-0.051,0.035,-0.022,103.0,103.0,100.0,13.4,1505.2,325.4,-0.8,1.8,2470.869,13.29,0.061,304.5
2022-07-09T05:31:03,42.805,6.029,-0.041,0.016,-0.002,102.0,103.0,101.0,13.3,1505.2,324.0,-0.7,1.8,2470.85,13.29,0.044,291.3
2022-07-09T05:34:03,42.805,6.029,-0.048,0.031,-0.001,102.0,102.0,101.0,13.4,1505.2,323.3,-0.7,1.8,2470.885,13.29,0.057,302.9
2022-07-09T05:37:03,42.805,6.029,-0.053,0.015,-0.01,103.0,103.0,101.0,13.4,1505.2,323.2,-0.8,1.8,2470.844,13.29,0.055,285.8
2022-07-09T05:40:03,42.805,6.029,-0.041,0.042,0.0,103.0,104.0,101.0,13.3,1505.2,330.2,-0.7,1.8,2470.836,13.29,0.058,315.7
2022-07-09T05:43:03,42.805,6.029,-0.025,0.033,-0.009,103.0,104.0,100.0,13.4,1505.2,324.6,-0.8,1.8,2470.886,13.29,0.041,322.8
2022-07-09T05:46:03,42.805,6.029,-0.03,0.035,-0.01,101.0,102.0,101.0,13.4,1505.2,325.0,-0.8,1.8,2470.893,13.29,0.046,319.4
2022-07-09T05:49:03,42.805,6.029,-0.044,0.023,-0.027,103.0,102.0,100.0,13.4,1505.2,328.8,-0.8,1.8,2470.873,13.29,0.049,297.6
2022-07-09T05:52:03,42.805,6.029,-0.033,0.042,-0.002,104.0,103.0,101.0,13.4,1505.2,326.3,-0.7,1.8,2470.835,13.29,0.053,321.8
2022-07-09T05:55:03,42.805,6.029,-0.031,0.025,0.022,102.0,104.0,100.0,13.3,1505.2,320.6,-0.8,1.8,2470.861,13.29,0.039,308.9
2022-07-09T05:58:03,42.805,6.029,-0.046,0.032,0.017,103.0,102.0,100.0,13.4,1505.2,320.3,-0.8,1.8,2470.844,13.29,0.056,304.8
2022-07-09T06:04:03,42.805,6.029,-0.034,0.046,-0.015,102.0,103.0,100.0,13.4,1505.2,330.6,-0.7,1.8,2470.898,13.28,0.057,323.5
2022-07-09T06:07:03,42.805,6.029,-0.014,0.024,-0.017,101.0,103.0,100.0,13.4,1505.2,323.1,-0.7,1.8,2470.857,13.28,0.027,329.7
2022-07-09T06:10:03,42.805,6.029,-0.027,0.03,-0.022,102.0,104.0,101.0,13.3,1505.2,331.3,-0.8,1.8,2470.902,13.29,0.04,318.0
2022-07-09T06:13:03,42.805,6.029,-0.032,0.027,0.014,102.0,104.0,101.0,13.4,1505.2,327.5,-0.7,1.8,2470.876,13.29,0.041,310.2
2022-07-09T06:16:03,42.805,6.029,-0.033,0.021,-0.001,102.0,104.0,100.0,13.4,1505.2,326.1,-0.7,1.8,2470.87,13.29,0.039,302.5
2022-07-09T06:19:03,42.805,6.029,-0.023,0.018,-0.008,103.0,103.0,100.0,13.4,1505.2,322.6,-0.8,1.8,2470.855,13.29,0.029,308.0
2022-07-09T06:22:03,42.805,6.029,-0.032,0.019,-0.028,103.0,105.0,101.0,13.3,1505.2,326.0,-0.7,1.8,2470.862,13.29,0.037,300.7
2022-07-09T06:25:03,42.805,6.029,-0.037,0.027,0.02,102.0,103.0,101.0,13.4,1505.2,321.5,-0.7,1.8,2470.855,13.29,0.045,306.1
2022-07-09T06:28:03,42.805,6.029,-0.021,0.008,-0.016,102.0,104.0,101.0,13.4,1505.2,326.6,-0.8,1.8,2470.817,13.29,0.022,290.9
2022-07-09T06:31:03,42.805,6.029,-0.032,0.028,-0.011,103.0,103.0,100.0,13.4,1505.2,329.9,-0.8,1.8,2470.835,13.29,0.042,311.2
2022-07-09T06:34:03,42.805,6.029,-0.033,0.034,-0.04,103.0,104.0,100.0,13.4,1505.2,331.9,-0.8,1.8,2470.842,13.29,0.047,315.9
2022-07-09T06:37:03,42.805,6.029,-0.051,0.016,-0.005,103.0,103.0,100.0,13.3,1505.2,320.3,-0.7,1.8,2470.847,13.29,0.053,287.4
2022-07-09T06:40:03,42.805,6.029,-0.039,0.038,-0.037,102.0,105.0,100.0,13.3,1505.2,322.1,-0.8,1.8,2470.84,13.29,0.054,314.3
2022-07-09T06:43:03,42.805,6.029,-0.05,0.032,-0.038,105.0,103.0,100.0,13.4,1505.2,324.1,-0.8,1.8,2470.821,13.29,0.059,302.6
2022-07-09T06:46:03,42.805,6.029,-0.047,0.001,-0.028,102.0,102.0,101.0,13.4,1505.2,320.3,-0.7,1.8,2470.856,13.29,0.047,271.2
2022-07-09T06:49:03,42.805,6.029,-0.043,0.035,-0.015,103.0,103.0,100.0,13.4,1505.2,326.5,-0.8,1.8,2470.819,13.29,0.055,309.1
2022-07-09T06:52:03,42.805,6.029,-0.033,0.043,0.002,103.0,102.0,100.0,13.4,1505.2,330.9,-0.7,1.8,2470.816,13.29,0.054,322.5
2022-07-09T06:55:03,42.805,6.029,-0.062,0.032,0.0,102.0,102.0,100.0,13.3,1505.2,326.0,-0.8,1.8,2470.843,13.29,0.069,297.3
2022-07-09T06:58:03,42.805,6.029,-0.031,0.034,-0.004,102.0,104.0,100.0,13.4,1505.2,329.6,-0.7,1.8,2470.838,13.29,0.046,317.6
2022-07-09T07:01:03,42.805,6.029,-0.029,0.033,0.008,104.0,103.0,101.0,13.3,1505.2,325.4,-0.8,1.8,2470.863,13.29,0.043,318.7
2022-07-09T07:04:03,42.805,6.029,-0.02,0.042,-0.006,103.0,102.0,101.0,13.3,1505.2,325.7,-0.8,1.8,2470.802,13.29,0.046,334.5
2022-07-09T07:07:03,42.805,6.029,-0.026,0.029,-0.004,105.0,103.0,101.0,13.4,1505.2,331.3,-0.7,1.8,2470.808,13.29,0.038,318.1
2022-07-09T07:10:03,42.805,6.029,-0.019,0.007,-0.025,104.0,103.0,101.0,13.3,1505.2,322.7,-0.8,1.9,2470.835,13.29,0.02,290.2
2022-07-09T07:13:03,42.805,6.029,-0.044,0.041,-0.017,102.0,104.0,101.0,13.4,1505.2,320.8,-0.8,1.8,2470.849,13.29,0.06,313.0
2022-07-09T07:16:03,42.805,6.029,-0.027,0.037,0.009,103.0,103.0,100.0,13.4,1505.2,326.7,-0.8,1.8,2470.865,13.29,0.045,323.9
2022-07-09T07:19:03,42.805,6.029,-0.011,0.02,-0.001,104.0,103.0,100.0,13.4,1505.2,331.6,-0.8,1.8,2470.821,13.29,0.022,331.2
2022-07-09T07:22:03,42.805,6.029,-0.033,0.018,-0.035,103.0,105.0,101.0,13.4,1505.2,325.9,-0.7,1.8,2470.83,13.29,0.037,298.6
2022-07-09T07:25:03,42.805,6.029,-0.019,0.024,-0.007,104.0,103.0,101.0,13.3,1505.2,321.3,-0.7,1.8,2470.857,13.29,0.03,321.6
2022-07-09T07:28:03,42.805,6.029,-0.019,0.009,-0.016,103.0,103.0,100.0,13.4,1505.2,331.4,-0.7,1.8,2470.808,13.29,0.021,295.3
2022-07-09T07:31:03,42.805,6.029,-0.032,0.059,0.016,102.0,104.0,101.0,13.4,1505.2,329.5,-0.8,1.8,2470.781,13.29,0.067,331.5
2022-07-09T07:34:03,42.805,6.029,-0.016,0.031,-0.02,103.0,104.0,101.0,13.4,1505.2,324.5,-0.8,1.8,2470.806,13.29,0.034,332.7
2022-07-09T07:37:03,42.805,6.029,-0.015,0.033,-0.004,103.0,103.0,101.0,13.4,1505.2,326.0,-0.8,1.8,2470.794,13.29,0.036,335.6
2022-07-09T07:40:03,42.805,6.029,-0.057,0.047,-0.011,103.0,103.0,101.0,13.4,1505.2,324.5,-0.7,1.8,2470.797,13.29,0.073,309.5
2022-07-09T07:43:03,42.805,6.029,-0.021,0.044,-0.011,103.0,103.0,100.0,13.3,1505.2,331.9,-0.8,1.8,2470.788,13.29,0.048,334.5
2022-07-09T07:46:03,42.805,6.029,-0.034,0.013,0.005,101.0,103.0,101.0,13.4,1505.2,328.4,-0.7,1.8,2470.782,13.29,0.036,290.9
2022-07-09T07:49:03,42.805,6.029,-0.056,0.021,-0.012,103.0,103.0,101.0,13.4,1505.2,321.7,-0.8,1.8,2470.795,13.29,0.059,290.6
2022-07-09T07:52:03,42.805,6.029,-0.038,0.018,-0.01,102.0,105.0,99.0,13.3,1505.2,324.6,-0.8,1.8,2470.834,13.29,0.042,295.3
2022-07-09T07:55:03,42.805,6.029,-0.029,0.037,0.001,101.0,103.0,102.0,13.4,1505.2,322.0,-0.8,1.8,2470.783,13.29,0.047,321.9
2022-07-09T07:58:03,42.805,6.029,-0.015,0.012,-0.006,102.0,102.0,100.0,13.4,1505.2,325.3,-0.7,1.8,2470.773,13.29,0.019,308.7
2022-07-09T08:04:03,42.805,6.029,-0.037,0.03,-0.019,103.0,105.0,99.0,13.4,1505.2,331.9,-0.7,1.8,2470.878,13.28,0.047,309.0
2022-07-09T08:07:03,42.805,6.029,-0.031,0.024,-0.005,102.0,103.0,100.0,13.3,1505.2,324.5,-0.8,1.9,2470.83,13.28,0.039,307.7
2022-07-09T08:10:03,42.805,6.029,-0.051,0.022,-0.026,103.0,103.0,101.0,13.4,1505.2,328.2,-0.8,1.8,2470.788,13.29,0.055,293.3
2022-07-09T08:13:03,42.805,6.029,-0.036,0.04,-0.012,103.0,103.0,101.0,13.4,1505.2,325.8,-0.7,1.8,2470.83,13.29,0.053,318.0
2022-07-09T08:16:03,42.805,6.029,0.002,0.025,-0.001,103.0,103.0,101.0,13.4,1505.2,323.8,-0.7,1.8,2470.763,13.29,0.025,4.6
2022-07-09T08:19:03,42.805,6.029,-0.031,0.018,-0.003,103.0,103.0,102.0,13.4,1505.2,330.7,-0.8,1.8,2470.78,13.29,0.035,300.1
2022-07-09T08:22:03,42.805,6.029,-0.02,0.014,-0.027,102.0,104.0,101.0,13.4,1505.2,323.6,-0.8,1.8,2470.779,13.29,0.024,305.0
2022-07-09T08:25:03,42.805,6.029,-0.003,0.017,-0.005,103.0,103.0,101.0,13.3,1505.2,329.0,-0.7,1.8,2470.791,13.29,0.017,350.0
2022-07-09T08:28:03,42.805,6.029,-0.036,0.025,-0.022,102.0,102.0,101.0,13.4,1505.2,327.4,-0.8,1.8,2470.769,13.29,0.043,304.8
2022-07-09T08:31:03,42.805,6.029,-0.036,0.016,0.013,104.0,104.0,99.0,13.4,1505.2,323.5,-0.8,1.8,2470.744,13.29,0.039,294.0
2022-07-09T08:34:03,42.805,6.029,-0.035,0.024,0.005,102.0,103.0,100.0,13.4,1505.2,329.3,-0.8,1.8,2470.797,13.29,0.042,304.4
2022-07-09T08:37:03,42.805,6.029,-0.017,0.028,-0.032,103.0,103.0,101.0,13.4,1505.2,326.5,-0.7,1.8,2470.779,13.29,0.032,328.7
2022-07-09T08:40:03,42.805,6.029,-0.033,0.039,0.017,101.0,104.0,100.0,13.4,1505.2,321.3,-0.8,1.8,2470.792,13.29,0.051,319.8
2022-07-09T08:43:03,42.805,6.029,-0.034,0.02,-0.012,102.0,103.0,100.0,13.4,1505.2,325.5,-0.8,1.8,2470.787,13.29,0.039,300.5
2022-07-09T08:46:03,42.805,6.029,-0.022,0.032,-0.012,104.0,103.0,100.0,13.4,1505.2,324.4,-0.8,1.8,2470.777,13.29,0.038,325.5
2022-07-09T08:49:03,42.805,6.029,-0.026,0.032,-0.001,102.0,103.0,101.0,13.4,1505.2,322.9,-0.7,1.8,2470.763,13.29,0.041,320.9
2022-07-09T08:52:03,42.805,6.029,-0.034,-0.002,-0.032,103.0,103.0,100.0,13.4,1505.2,319.3,-0.8,1.8,2470.782,13.29,0.034,266.6
2022-07-09T08:55:03,42.805,6.029,-0.026,0.034,0.001,102.0,102.0,101.0,13.3,1505.2,327.6,-0.8,1.8,2470.777,13.29,0.042,322.6
2022-07-09T08:58:03,42.805,6.029,-0.03,0.032,-0.001,102.0,102.0,100.0,13.3,1505.2,329.5,-0.8,1.8,2470.77,13.29,0.043,316.9
2022-07-09T09:04:03,42.805,6.029,-0.03,0.018,-0.011,103.0,103.0,101.0,13.4,1505.2,325.4,-0.8,1.8,2470.793,13.28,0.034,301.0
2022-07-09T09:07:03,42.805,6.029,-0.043,0.025,-0.007,103.0,103.0,100.0,13.3,1505.2,320.3,-0.7,1.8,2470.791,13.29,0.049,300.2
2022-07-09T09:10:03,42.805,6.029,-0.047,0.031,-0.031,101.0,103.0,101.0,13.4,1505.2,325.8,-0.7,1.8,2470.836,13.29,0.056,303.4
2022-07-09T09:13:03,42.805,6.029,-0.009,0.043,0.033,103.0,103.0,100.0,13.4,1505.2,329.5,-0.8,1.8,2470.809,13.29,0.043,348.2
2022-07-09T09:16:03,42.805,6.029,-0.025,0.052,0.009,102.0,103.0,99.0,13.3,1505.2,332.6,-0.7,1.8,2470.779,13.29,0.057,334.3
2022-07-09T09:19:03,42.805,6.029,-0.026,0.03,-0.012,104.0,103.0,100.0,13.4,1505.2,332.2,-0.7,1.8,2470.794,13.29,0.039,319.1
2022-07-09T09:22:03,42.805,6.029,-0.049,0.049,-0.005,101.0,103.0,101.0,13.3,1505.2,331.6,-0.8,1.8,2470.806,13.29,0.069,315.0
2022-07-09T09:25:03,42.805,6.029,-0.039,0.007,-0.027,103.0,103.0,101.0,13.4,1505.2,325.3,-0.7,1.8,2470.762,13.29,0.039,280.2
2022-07-09T09:28:03,42.805,6.029,-0.05,0.023,-0.021,104.0,103.0,100.0,13.4,1505.2,319.0,-0.7,1.8,2470.804,13.29,0.055,294.7
2022-07-09T09:31:03,42.805,6.029,-0.018,0.037,0.012,102.0,102.0,101.0,13.4,1505.2,327.0,-0.8,1.8,2470.763,13.29,0.041,334.1
2022-07-09T09:34:03,42.805,6.029,-0.027,0.041,-0.016,101.0,102.0,101.0,13.3,1505.2,324.5,-0.8,1.8,2470.748,13.29,0.049,326.6
2022-07-09T09:37:03,42.805,6.029,-0.022,0.025,0.014,103.0,103.0,100.0,13.4,1505.2,321.2,-0.7,1.8,2470.78,13.29,0.033,318.7
2022-07-09T09:40:03,42.805,6.029,-0.039,0.049,0.011,102.0,103.0,101.0,13.4,1505.2,330.4,-0.8,1.8,2470.767,13.29,0.062,321.5
2022-07-09T09:43:03,42.805,6.029,-0.017,0.024,0.014,102.0,102.0,101.0,13.3,1505.2,326.5,-0.8,1.8,2470.756,13.29,0.029,324.7
2022-07-09T09:46:03,42.805,6.029,-0.021,0.02,0.005,102.0,103.0,100.0,13.3,1505.2,332.2,-0.8,1.8,2470.764,13.29,0.028,313.6
2022-07-09T09:49:03,42.805,6.029,-0.035,0.022,0.0,105.0,104.0,100.0,13.4,1505.2,327.1,-0.7,1.8,2470.763,13.29,0.041,302.2
2022-07-09T09:52:03,42.805,6.029,-0.025,0.032,0.002,102.0,103.0,101.0,13.3,1505.2,327.6,-0.8,1.8,2470.764,13.29,0.04,322.0